Change the Weather History Date:

Tuesday, November 27, 2012

  Actual Average Record
Temperature  
Mean Temperature 28 °F -  
Max Temperature 35 °F 41 °F 75 °F (1998)
Min Temperature 20 °F 22 °F 10 °F (2013)
Degree Days  
Heating Degree Days 37    
Moisture  
Dew Point 21 °F    
Average Humidity 78    
Maximum Humidity 86    
Minimum Humidity 65    
Precipitation  
Precipitation 0.01 in - - ()
Sea Level Pressure  
Sea Level Pressure 30.17 in    
Wind  
Wind Speed 10 mph (WSW)    
Max Wind Speed 16 mph    
Max Gust Speed -    
Visibility 10 miles    
Events      
Averages and records for this station are not official NWS values.
T = Trace of Precipitation, MM = Missing Value Source: NWS Daily Summary

Daily Weather History Graph

Daily Weather History Graph

Search for Another Location

Airport or City:

Trip Planner

Search our weather history database for the weather conditions in past years. The results will help you decide how hot, cold, wet, or windy it might be!

Date:

Astronomy

Nov. 27, 2012 Rise Set
Actual Time 7:46 AM CST 5:08 PM CST
Civil Twilight 7:15 AM CST 5:40 PM CST
Nautical Twilight 6:40 AM CST 6:15 PM CST
Astronomical Twilight 6:06 AM CST 6:48 PM CST
Moon 4:41 PM CST (11/27) 6:52 AM CST (11/27)
Length of Visible Light 10h 25m
Length of Day
9h 22m
Waxing Gibbous, 99% of the Moon is Illuminated
Nov 27
Waxing Gibbous
Nov 28
Full
Dec 6
Last Quarter
Dec 13
New
Dec 19
First Quarter

Hourly Weather History & Observations

Time (CST) Temp. Windchill Dew Point Humidity Pressure Visibility Wind Dir Wind Speed Gust Speed Precip Events Conditions
12:15 AM 22.5 °F 12.4 °F 18.9 °F 86% 30.26 in 10.0 mi SSW 9.2 mph - N/A   Clear
12:35 AM 22.8 °F 12.2 °F 19.0 °F 85% 30.25 in 10.0 mi SW 10.4 mph - N/A   Clear
12:55 AM 23.0 °F 10.6 °F 19.0 °F 85% 30.24 in 10.0 mi SW 13.8 mph - N/A   Clear
1:15 AM 24.6 °F 13.8 °F 19.9 °F 82% 30.23 in 10.0 mi SSW 11.5 mph - N/A   Clear
1:35 AM 23.4 °F 12.2 °F 18.9 °F 83% 30.22 in 10.0 mi South 11.5 mph - N/A   Clear
1:55 AM 23.9 °F 11.7 °F 19.6 °F 84% 30.20 in 10.0 mi SSW 13.8 mph - N/A   Clear
2:15 AM 24.6 °F 12.7 °F 19.9 °F 82% 30.19 in 10.0 mi SSW 13.8 mph - N/A   Clear
2:35 AM 23.9 °F 12.3 °F 19.4 °F 83% 30.19 in 10.0 mi SSW 12.7 mph - N/A   Clear
2:55 AM 23.9 °F 11.7 °F 19.9 °F 85% 30.19 in 10.0 mi SSW 13.8 mph - N/A   Clear
3:15 AM 23.7 °F 12.1 °F 19.4 °F 84% 30.18 in 10.0 mi SSW 12.7 mph - N/A   Clear
3:35 AM 23.9 °F 11.7 °F 19.8 °F 84% 30.16 in 10.0 mi SSW 13.8 mph - N/A   Clear
3:55 AM 24.1 °F 12.0 °F 19.8 °F 84% 30.15 in 10.0 mi South 13.8 mph - N/A   Clear
4:15 AM 24.4 °F 12.4 °F 19.9 °F 83% 30.14 in 10.0 mi South 13.8 mph - N/A   Clear
4:35 AM 24.6 °F 12.2 °F 19.9 °F 82% 30.12 in 10.0 mi South 15.0 mph - N/A   Clear
4:55 AM 24.8 °F 12.4 °F 20.1 °F 82% 30.12 in 10.0 mi SSW 15.0 mph - N/A   Clear
5:15 AM 24.8 °F 12.4 °F 19.8 °F 81% 30.11 in 10.0 mi SSW 15.0 mph - N/A   Clear
5:35 AM 24.8 °F 11.9 °F 19.6 °F 81% 30.11 in 10.0 mi SSW 16.1 mph - N/A   Clear
5:55 AM 24.8 °F 14.0 °F 19.4 °F 80% 30.11 in 10.0 mi SSW 11.5 mph - N/A   Clear
6:15 AM 24.8 °F 14.0 °F 19.4 °F 80% 30.10 in 10.0 mi SSW 11.5 mph - N/A   Clear
6:35 AM 24.8 °F 12.9 °F 19.4 °F 80% 30.10 in 10.0 mi SSW 13.8 mph - N/A   Clear
6:55 AM 23.9 °F 12.9 °F 18.5 °F 80% 30.09 in 10.0 mi SW 11.5 mph - N/A   Clear
7:15 AM 23.5 °F 13.0 °F 18.5 °F 81% 30.10 in 10.0 mi SW 10.4 mph - N/A   Clear
7:35 AM 23.7 °F 12.1 °F 18.5 °F 80% 30.10 in 10.0 mi SW 12.7 mph - N/A   Clear
7:55 AM 24.4 °F 13.0 °F 19.0 °F 80% 30.10 in 10.0 mi SW 12.7 mph - N/A   Clear
8:15 AM 24.4 °F 13.5 °F 19.4 °F 81% 30.10 in 10.0 mi SW 11.5 mph - N/A   Clear
8:35 AM 24.8 °F 15.3 °F 19.4 °F 80% 30.10 in 10.0 mi SW 9.2 mph - N/A   Clear
8:55 AM 26.6 °F 16.8 °F 20.7 °F 78% 30.11 in 10.0 mi WSW 10.4 mph - N/A   Clear
9:15 AM 27.9 °F 17.3 °F 21.2 °F 76% 30.11 in 10.0 mi WSW 12.7 mph - N/A   Clear
9:35 AM 28.0 °F 18.1 °F 21.7 °F 77% 30.11 in 10.0 mi West 11.5 mph - N/A   Clear
9:55 AM 29.1 °F 20.6 °F 22.1 °F 75% 30.12 in 10.0 mi West 9.2 mph - N/A   Clear
10:15 AM 29.3 °F 21.5 °F 22.3 °F 75% 30.13 in 10.0 mi West 8.1 mph - N/A   Clear
10:35 AM 29.3 °F 23.2 °F 21.9 °F 74% 30.14 in 10.0 mi West 5.8 mph - N/A   Clear
10:55 AM 31.1 °F 24.5 °F 22.8 °F 71% 30.14 in 10.0 mi West 6.9 mph - N/A   Clear
11:15 AM 31.1 °F 25.4 °F 23.2 °F 72% 30.14 in 10.0 mi West 5.8 mph - N/A   Clear
11:35 AM 31.1 °F 23.1 °F 23.0 °F 72% 30.14 in 10.0 mi West 9.2 mph - N/A   Clear
11:55 AM 31.6 °F 23.1 °F 23.4 °F 71% 30.15 in 10.0 mi West 10.4 mph - N/A   Clear
12:15 PM 31.8 °F 24.6 °F 23.2 °F 70% 30.14 in 10.0 mi West 8.1 mph - N/A   Clear
12:35 PM 31.8 °F 23.9 °F 23.4 °F 71% 30.13 in 10.0 mi West 9.2 mph - N/A   Clear
12:55 PM 32.2 °F 24.4 °F 23.9 °F 72% 30.13 in 10.0 mi West 9.2 mph - N/A   Clear
1:15 PM 33.1 °F 26.1 °F 24.8 °F 72% 30.12 in 10.0 mi WNW 8.1 mph - N/A   Clear
1:35 PM 33.4 °F 26.6 °F 25.0 °F 71% 30.12 in 10.0 mi WNW 8.1 mph - N/A   Clear
1:55 PM 33.8 °F 25.8 °F 24.8 °F 70% 30.12 in 10.0 mi NW 10.4 mph - N/A   Clear
2:15 PM 35.1 °F 29.3 °F 25.0 °F 67% 30.13 in 10.0 mi NW 6.9 mph - N/A   Clear
2:35 PM 35.6 °F 29.9 °F 24.8 °F 65% 30.12 in 10.0 mi WNW 6.9 mph - N/A   Clear
2:55 PM 35.8 °F 30.1 °F 25.5 °F 66% 30.12 in 10.0 mi WNW 6.9 mph - N/A   Clear
3:15 PM 35.1 °F 30.1 °F 25.2 °F 67% 30.13 in 10.0 mi WNW 5.8 mph - 0.01 in   Clear
3:35 PM 34.5 °F 30.4 °F 25.3 °F 69% 30.13 in 10.0 mi West 4.6 mph - 0.01 in   Clear
3:55 PM 32.9 °F 27.5 °F 24.8 °F 72% 30.14 in 10.0 mi West 5.8 mph - 0.01 in   Clear
4:15 PM 32.2 °F 26.7 °F 24.6 °F 74% 30.15 in 10.0 mi West 5.8 mph - N/A   Clear
4:35 PM 31.6 °F 24.4 °F 23.9 °F 73% 30.17 in 10.0 mi West 8.1 mph - N/A   Clear
4:55 PM 30.6 °F 23.1 °F 23.5 °F 75% 30.17 in 10.0 mi West 8.1 mph - N/A   Clear
5:15 PM 29.3 °F 22.3 °F 22.5 °F 76% 30.17 in 10.0 mi West 6.9 mph - N/A   Clear
5:35 PM 26.6 °F 21.2 °F 21.2 °F 80% 30.18 in 10.0 mi West 4.6 mph - N/A   Clear
5:55 PM 26.4 °F 18.9 °F 21.6 °F 82% 30.19 in 10.0 mi WNW 6.9 mph - N/A   Clear
6:15 PM 26.6 °F 19.1 °F 21.2 °F 80% 30.19 in 10.0 mi West 6.9 mph - N/A   Clear
6:35 PM 25.7 °F 17.1 °F 20.5 °F 81% 30.20 in 10.0 mi West 8.1 mph - N/A   Clear
6:55 PM 27.5 °F 20.2 °F 21.2 °F 77% 30.19 in 10.0 mi West 6.9 mph - N/A   Clear
7:15 PM 25.3 °F 17.6 °F 19.4 °F 78% 30.21 in 10.0 mi West 6.9 mph - N/A   Clear
7:35 PM 24.8 °F 16.9 °F 19.0 °F 79% 30.22 in 10.0 mi West 6.9 mph - N/A   Clear
7:55 PM 24.4 °F 17.5 °F 18.9 °F 79% 30.22 in 10.0 mi West 5.8 mph - N/A   Clear
8:15 PM 25.5 °F 17.8 °F 19.8 °F 79% 30.23 in 10.0 mi WNW 6.9 mph - N/A   Clear
8:35 PM 26.1 °F 20.5 °F 19.4 °F 76% 30.23 in 10.0 mi NW 4.6 mph - N/A   Clear
8:55 PM 23.2 °F 16.0 °F 17.6 °F 79% 30.23 in 10.0 mi West 5.8 mph - N/A   Clear
9:15 PM 23.2 °F 17.2 °F 18.3 °F 82% 30.23 in 10.0 mi West 4.6 mph - N/A   Clear
9:35 PM 23.5 °F 14.5 °F 18.5 °F 81% 30.24 in 10.0 mi WNW 8.1 mph - N/A   Clear
9:55 PM 24.4 °F 16.5 °F 18.1 °F 77% 30.24 in 10.0 mi West 6.9 mph - N/A   Clear
10:15 PM 23.0 °F 15.8 °F 18.1 °F 82% 30.24 in 10.0 mi West 5.8 mph - N/A   Clear
10:35 PM 21.2 °F 12.6 °F 16.5 °F 82% 30.25 in 10.0 mi WSW 6.9 mph - N/A   Clear
10:55 PM 21.4 °F 12.8 °F 16.9 °F 83% 30.25 in 10.0 mi SW 6.9 mph - N/A   Clear
11:15 PM 21.2 °F 11.7 °F 16.7 °F 83% 30.26 in 10.0 mi SW 8.1 mph - N/A   Clear
11:35 PM 21.2 °F 12.6 °F 16.5 °F 82% 30.26 in 10.0 mi WSW 6.9 mph - N/A   Clear
11:55 PM 20.3 °F 10.6 °F 16.0 °F 83% 30.26 in 10.0 mi SW 8.1 mph - N/A   Clear